AWC0605 EDDS-LESU

Flight info

Callsign AWC0605
Flight time 1h 46m
Altitude 31000
Route ROTWE5B ROTWE Y126 TUBLO N850 NATOR DCT LUTIX DCT BENOT/N0450F370 DCT NEMOS DCT GEVEA DCT INCUS DCT BALSI DCT RETNO DCT TUPOX DCT MTG DCT DIVKO DCT NILDU N975 BGR/N0380F230 L110 LATRO LATRO1F
Aircraft A320/M-SDFGHIRWXYZ/LB1

Departure

Time 2026-05-06 08:40
Airport Stuttgart Airport (EDDS)

Arrival

Time 2026-05-06 10:26
Airport Pirineus - la Seu d'Urgel Airport (LESU)
Time Latitude Longitude Altitude Speed Heading
2026-05-06 08:18 48.68967 9.20358 1290 ft 0 kts 164°
2026-05-06 08:34 48.68959 9.20362 1289 ft 3 kts 164°
2026-05-06 08:34 48.68911 9.20422 1285 ft 7 kts 85°
2026-05-06 08:34 48.68931 9.20528 1285 ft 14 kts 73°
2026-05-06 08:35 48.68962 9.20684 1288 ft 16 kts 74°
2026-05-06 08:35 48.68994 9.20860 1289 ft 18 kts 74°
2026-05-06 08:35 48.69030 9.21051 1285 ft 20 kts 73°
2026-05-06 08:35 48.69070 9.21258 1287 ft 21 kts 74°
2026-05-06 08:36 48.69112 9.21480 1287 ft 23 kts 73°
2026-05-06 08:36 48.69156 9.21717 1285 ft 24 kts 74°
2026-05-06 08:36 48.69204 9.21967 1285 ft 25 kts 74°
2026-05-06 08:36 48.69253 9.22226 1286 ft 26 kts 74°
2026-05-06 08:37 48.69305 9.22499 1285 ft 28 kts 74°
2026-05-06 08:37 48.69359 9.22782 1285 ft 29 kts 74°
2026-05-06 08:37 48.69414 9.23076 1287 ft 29 kts 74°
2026-05-06 08:37 48.69465 9.23347 1285 ft 26 kts 73°
2026-05-06 08:38 48.69517 9.23617 1285 ft 27 kts 74°
2026-05-06 08:38 48.69563 9.23863 1285 ft 23 kts 74°
2026-05-06 08:38 48.69606 9.24081 1285 ft 19 kts 74°
2026-05-06 08:38 48.69573 9.24254 1289 ft 18 kts 120°
2026-05-06 08:39 48.69477 9.24327 1287 ft 14 kts 166°
2026-05-06 08:39 48.69404 9.24350 1289 ft 6 kts 196°
2026-05-06 08:39 48.69384 9.24272 1285 ft 16 kts 251°
2026-05-06 08:39 48.69283 9.23753 1287 ft 83 kts 254°
2026-05-06 08:40 48.69069 9.22624 1287 ft 137 kts 254°
2026-05-06 08:40 48.68763 9.21043 1425 ft 165 kts 253°
2026-05-06 08:40 48.68468 9.19369 2041 ft 164 kts 255°
2026-05-06 08:40 48.68180 9.17711 2652 ft 161 kts 255°
2026-05-06 08:41 48.67898 9.16099 3204 ft 157 kts 255°
2026-05-06 08:41 48.67584 9.14408 3411 ft 178 kts 253°
2026-05-06 08:41 48.67216 9.12498 3610 ft 200 kts 253°
2026-05-06 08:41 48.66800 9.10350 3849 ft 225 kts 253°
2026-05-06 08:42 48.66344 9.07992 4207 ft 249 kts 254°
2026-05-06 08:42 48.65824 9.05423 4872 ft 260 kts 248°
2026-05-06 08:42 48.64823 9.03138 5628 ft 266 kts 226°
2026-05-06 08:42 48.63513 9.01151 6477 ft 268 kts 225°
2026-05-06 08:43 48.62185 8.99149 7305 ft 270 kts 225°
2026-05-06 08:43 48.60847 8.97146 8134 ft 272 kts 224°
2026-05-06 08:43 48.59501 8.95136 8957 ft 273 kts 224°
2026-05-06 08:43 48.58143 8.93109 9771 ft 275 kts 224°
2026-05-06 08:44 48.56758 8.91037 10240 ft 290 kts 224°
2026-05-06 08:44 48.55271 8.88811 10419 ft 312 kts 224°
2026-05-06 08:44 48.53700 8.86462 10873 ft 322 kts 224°
2026-05-06 08:44 48.52098 8.84067 11515 ft 326 kts 223°
2026-05-06 08:45 48.50480 8.81650 12179 ft 329 kts 223°
2026-05-06 08:45 48.48847 8.79209 12859 ft 332 kts 223°
2026-05-06 08:45 48.47195 8.76742 13538 ft 335 kts 223°
2026-05-06 08:45 48.45531 8.74265 14132 ft 338 kts 223°
2026-05-06 08:46 48.43849 8.71759 14719 ft 342 kts 223°
2026-05-06 08:46 48.42152 8.69230 15276 ft 345 kts 223°
2026-05-06 08:46 48.40445 8.66733 15825 ft 348 kts 219°
2026-05-06 08:46 48.38437 8.64604 16366 ft 351 kts 212°
2026-05-06 08:47 48.36384 8.62589 16933 ft 354 kts 212°
2026-05-06 08:47 48.34308 8.60557 17495 ft 358 kts 212°
2026-05-06 08:47 48.32238 8.58536 18053 ft 362 kts 212°
2026-05-06 08:47 48.30120 8.56464 18571 ft 365 kts 212°
2026-05-06 08:48 48.27989 8.54374 19122 ft 367 kts 212°
2026-05-06 08:48 48.25851 8.52274 19707 ft 368 kts 212°
2026-05-06 08:48 48.23704 8.50164 20288 ft 370 kts 212°
2026-05-06 08:48 48.21548 8.48047 20849 ft 371 kts 212°
2026-05-06 08:49 48.19378 8.45922 21404 ft 373 kts 211°
2026-05-06 08:49 48.17202 8.43795 21943 ft 375 kts 211°
2026-05-06 08:49 48.15013 8.41659 22474 ft 376 kts 211°
2026-05-06 08:49 48.12814 8.39514 23006 ft 378 kts 211°
2026-05-06 08:50 48.10595 8.37354 23452 ft 382 kts 211°
2026-05-06 08:50 48.08361 8.35182 23845 ft 384 kts 211°
2026-05-06 08:50 48.06114 8.32998 24262 ft 386 kts 211°
2026-05-06 08:50 48.03858 8.30805 24683 ft 387 kts 211°
2026-05-06 08:51 48.01594 8.28605 25104 ft 389 kts 211°
2026-05-06 08:51 47.99321 8.26399 25499 ft 390 kts 211°
2026-05-06 08:51 47.97038 8.24189 25898 ft 392 kts 211°
2026-05-06 08:51 47.94743 8.21973 26284 ft 393 kts 211°
2026-05-06 08:52 47.92443 8.19754 26688 ft 394 kts 211°
2026-05-06 08:52 47.90138 8.17526 27072 ft 395 kts 211°
2026-05-06 08:52 47.87827 8.15294 27464 ft 397 kts 211°
2026-05-06 08:52 47.85509 8.13064 27870 ft 398 kts 211°
2026-05-06 08:53 47.83967 8.11583 28150 ft 398 kts 211°
2026-05-06 08:53 47.81634 8.09345 28527 ft 400 kts 211°
2026-05-06 08:53 47.79290 8.07101 28900 ft 401 kts 211°
2026-05-06 08:53 47.76172 8.04117 29381 ft 403 kts 211°
2026-05-06 08:54 47.74581 8.02595 29637 ft 403 kts 211°
2026-05-06 08:54 47.72230 8.00342 30112 ft 400 kts 211°
2026-05-06 08:54 47.69904 7.98112 30663 ft 396 kts 211°
2026-05-06 08:54 47.67601 7.95909 31135 ft 392 kts 211°
2026-05-06 08:55 47.65311 7.93726 31579 ft 390 kts 211°
2026-05-06 08:55 47.63024 7.91554 32036 ft 388 kts 212°
2026-05-06 08:55 47.60758 7.89402 32483 ft 387 kts 212°
2026-05-06 08:55 47.58498 7.87252 32924 ft 385 kts 212°
2026-05-06 08:56 47.56278 7.85139 33347 ft 384 kts 212°
2026-05-06 08:56 47.54038 7.83009 33781 ft 382 kts 212°
2026-05-06 08:56 47.51779 7.80868 34144 ft 380 kts 212°
2026-05-06 08:56 47.49583 7.78787 34431 ft 380 kts 212°
2026-05-06 08:57 47.47354 7.76674 34671 ft 381 kts 212°
2026-05-06 08:57 47.45116 7.74557 34807 ft 383 kts 212°
2026-05-06 08:57 47.42840 7.72407 34843 ft 384 kts 212°
2026-05-06 08:58 47.38422 7.68240 34843 ft 384 kts 212°
2026-05-06 08:58 47.33916 7.63999 34845 ft 384 kts 212°
2026-05-06 08:59 47.29412 7.59776 34848 ft 383 kts 212°
2026-05-06 08:59 47.24910 7.55572 34850 ft 383 kts 212°
2026-05-06 09:00 47.20406 7.51351 34851 ft 383 kts 212°
2026-05-06 09:00 47.15907 7.47148 34838 ft 383 kts 212°
2026-05-06 09:01 47.11432 7.42994 34840 ft 382 kts 212°
2026-05-06 09:01 47.06896 7.38774 34842 ft 385 kts 212°
2026-05-06 09:02 47.02396 7.34601 34841 ft 385 kts 212°
2026-05-06 09:02 46.97866 7.30408 34842 ft 386 kts 212°
2026-05-06 09:03 46.93327 7.26215 34841 ft 386 kts 212°
2026-05-06 09:03 46.88792 7.22033 34845 ft 385 kts 212°
2026-05-06 09:04 46.84258 7.17857 34862 ft 385 kts 211°
2026-05-06 09:04 46.79723 7.13691 34865 ft 385 kts 211°
2026-05-06 09:05 46.75183 7.09535 34861 ft 385 kts 211°
2026-05-06 09:05 46.70676 7.05422 34864 ft 384 kts 211°
2026-05-06 09:06 46.66121 7.01263 34863 ft 384 kts 212°
2026-05-06 09:06 46.61621 6.97161 34862 ft 384 kts 211°
2026-05-06 09:07 46.57088 6.93039 34865 ft 384 kts 211°
2026-05-06 09:07 46.52550 6.88929 34863 ft 384 kts 211°
2026-05-06 09:08 46.48010 6.84822 34889 ft 385 kts 211°
2026-05-06 09:08 46.43436 6.80689 34860 ft 388 kts 211°
2026-05-06 09:09 46.38843 6.76546 34866 ft 389 kts 211°
2026-05-06 09:09 46.34245 6.72403 34873 ft 389 kts 211°
2026-05-06 09:10 46.29655 6.68280 34873 ft 388 kts 211°
2026-05-06 09:10 46.25063 6.64174 34878 ft 388 kts 211°
2026-05-06 09:11 46.20474 6.60071 34873 ft 388 kts 211°
2026-05-06 09:11 46.15886 6.55975 34877 ft 388 kts 211°
2026-05-06 09:12 46.11315 6.51903 34891 ft 388 kts 211°
2026-05-06 09:12 46.06723 6.47813 34898 ft 389 kts 211°
2026-05-06 09:13 46.02124 6.43726 34902 ft 388 kts 211°
2026-05-06 09:13 45.97521 6.39655 34897 ft 388 kts 211°
2026-05-06 09:14 45.92919 6.35592 34912 ft 388 kts 211°
2026-05-06 09:14 45.88315 6.31527 34953 ft 388 kts 211°
2026-05-06 09:15 45.83407 6.28226 34911 ft 394 kts 201°
2026-05-06 09:15 45.78215 6.25586 34914 ft 395 kts 201°
2026-05-06 09:16 45.73039 6.22973 34915 ft 395 kts 201°
2026-05-06 09:16 45.67894 6.20355 34912 ft 394 kts 201°
2026-05-06 09:17 45.62721 6.17733 34914 ft 394 kts 201°
2026-05-06 09:17 45.57551 6.15118 34913 ft 394 kts 201°
2026-05-06 09:18 45.52399 6.12508 34914 ft 393 kts 201°
2026-05-06 09:18 45.47238 6.09903 34912 ft 393 kts 201°
2026-05-06 09:19 45.42087 6.07310 34912 ft 393 kts 201°
2026-05-06 09:19 45.36970 6.04738 34919 ft 392 kts 201°
2026-05-06 09:20 45.31830 6.02159 34918 ft 392 kts 201°
2026-05-06 09:20 45.26691 5.99583 34916 ft 391 kts 201°
2026-05-06 09:21 45.21553 5.97013 34901 ft 391 kts 202°
2026-05-06 09:21 45.16411 5.94448 34916 ft 392 kts 201°
2026-05-06 09:22 45.11266 5.91887 34913 ft 392 kts 202°
2026-05-06 09:22 45.06122 5.89335 34911 ft 392 kts 201°
2026-05-06 09:23 45.00979 5.86785 34908 ft 391 kts 202°
2026-05-06 09:23 44.95876 5.84260 34909 ft 391 kts 202°
2026-05-06 09:24 44.90738 5.81722 34906 ft 391 kts 202°
2026-05-06 09:24 44.85605 5.79189 34905 ft 391 kts 202°
2026-05-06 09:25 44.80477 5.76671 34909 ft 389 kts 202°
2026-05-06 09:25 44.75365 5.74169 34911 ft 389 kts 202°
2026-05-06 09:26 44.70258 5.71667 34909 ft 389 kts 202°
2026-05-06 09:26 44.65168 5.69164 34909 ft 391 kts 202°
2026-05-06 09:27 44.59986 5.66622 34914 ft 393 kts 202°
2026-05-06 09:27 44.54847 5.64125 34912 ft 393 kts 202°
2026-05-06 09:28 44.49680 5.61623 34920 ft 393 kts 202°
2026-05-06 09:28 44.44515 5.59110 34921 ft 393 kts 202°
2026-05-06 09:29 44.39349 5.56598 34920 ft 393 kts 202°
2026-05-06 09:29 44.34182 5.54101 34921 ft 393 kts 202°
2026-05-06 09:30 44.29011 5.51599 34922 ft 393 kts 202°
2026-05-06 09:30 44.23888 5.49125 34925 ft 392 kts 202°
2026-05-06 09:31 44.18710 5.46633 34930 ft 392 kts 202°
2026-05-06 09:31 44.13593 5.44176 34931 ft 391 kts 202°
2026-05-06 09:32 44.08447 5.41702 34915 ft 390 kts 202°
2026-05-06 09:32 44.03324 5.39252 34937 ft 389 kts 202°
2026-05-06 09:33 43.98216 5.36815 34926 ft 388 kts 203°
2026-05-06 09:33 43.95788 5.35232 34928 ft 383 kts 215°
2026-05-06 09:33 43.93562 5.33199 34950 ft 383 kts 216°
2026-05-06 09:34 43.89113 5.29074 34933 ft 385 kts 216°
2026-05-06 09:34 43.84663 5.24944 34937 ft 385 kts 216°
2026-05-06 09:35 43.80210 5.20827 34941 ft 385 kts 216°
2026-05-06 09:35 43.75748 5.16722 34944 ft 385 kts 216°
2026-05-06 09:36 43.71289 5.12619 34920 ft 385 kts 216°
2026-05-06 09:36 43.66843 5.08532 34949 ft 383 kts 216°
2026-05-06 09:37 43.62403 5.04466 34943 ft 383 kts 216°
2026-05-06 09:37 43.57961 5.00409 34949 ft 383 kts 216°
2026-05-06 09:38 43.53511 4.96343 34950 ft 383 kts 216°
2026-05-06 09:38 43.49096 4.92308 34951 ft 384 kts 216°
2026-05-06 09:39 43.44641 4.88240 34951 ft 384 kts 216°
2026-05-06 09:39 43.40179 4.84180 34943 ft 385 kts 216°
2026-05-06 09:40 43.35710 4.80133 34948 ft 385 kts 216°
2026-05-06 09:40 43.29022 4.74084 34948 ft 382 kts 216°
2026-05-06 09:41 43.24583 4.70076 34945 ft 382 kts 216°
2026-05-06 09:41 43.20171 4.66096 34945 ft 382 kts 216°
2026-05-06 09:42 43.15728 4.62102 34950 ft 382 kts 216°
2026-05-06 09:42 43.11288 4.58117 34946 ft 381 kts 216°
2026-05-06 09:43 43.06852 4.54143 34959 ft 382 kts 216°
2026-05-06 09:43 43.02396 4.50152 34959 ft 383 kts 216°
2026-05-06 09:44 42.97942 4.46167 34961 ft 383 kts 216°
2026-05-06 09:44 42.93482 4.42183 34954 ft 383 kts 216°
2026-05-06 09:45 42.89056 4.38244 34965 ft 382 kts 216°
2026-05-06 09:45 42.84594 4.34278 34964 ft 382 kts 216°
2026-05-06 09:46 42.80139 4.30331 34966 ft 382 kts 216°
2026-05-06 09:46 42.76428 4.27048 34967 ft 382 kts 216°
2026-05-06 09:47 42.71244 4.22465 34972 ft 382 kts 216°
2026-05-06 09:47 42.67506 4.19166 35000 ft 382 kts 216°
2026-05-06 09:48 42.63038 4.15222 34974 ft 384 kts 216°
2026-05-06 09:48 42.58552 4.11274 34974 ft 384 kts 216°
2026-05-06 09:49 42.54063 4.07331 34942 ft 384 kts 216°
2026-05-06 09:49 42.49579 4.03401 34978 ft 383 kts 216°
2026-05-06 09:50 42.45120 3.99495 34713 ft 386 kts 216°
2026-05-06 09:50 42.42868 3.97527 34470 ft 384 kts 216°
2026-05-06 09:50 42.40617 3.95566 34240 ft 382 kts 216°
2026-05-06 09:51 42.38392 3.93629 34007 ft 379 kts 216°
2026-05-06 09:51 42.36186 3.91709 33747 ft 376 kts 216°
2026-05-06 09:51 42.33998 3.89800 33423 ft 373 kts 216°
2026-05-06 09:51 42.31826 3.87907 33159 ft 372 kts 216°
2026-05-06 09:52 42.29664 3.85994 32778 ft 369 kts 219°
2026-05-06 09:52 42.27864 3.83555 32093 ft 366 kts 235°
2026-05-06 09:52 42.26411 3.80772 31715 ft 360 kts 235°
2026-05-06 09:52 42.24979 3.78037 31289 ft 355 kts 235°
2026-05-06 09:53 42.23559 3.75333 30876 ft 351 kts 235°
2026-05-06 09:53 42.22153 3.72662 30476 ft 346 kts 235°
2026-05-06 09:53 42.20784 3.70058 30081 ft 342 kts 235°
2026-05-06 09:53 42.19420 3.67461 29657 ft 338 kts 235°
2026-05-06 09:54 42.18070 3.64892 29274 ft 332 kts 235°
2026-05-06 09:54 42.16743 3.62367 28899 ft 328 kts 235°
2026-05-06 09:54 42.15435 3.59875 28540 ft 324 kts 235°
2026-05-06 09:54 42.14141 3.57414 28161 ft 320 kts 235°
2026-05-06 09:55 42.12858 3.54982 27826 ft 317 kts 235°
2026-05-06 09:55 42.11586 3.52574 27499 ft 313 kts 235°
2026-05-06 09:55 42.10329 3.50202 27160 ft 309 kts 235°
2026-05-06 09:55 42.09086 3.47851 26831 ft 306 kts 235°
2026-05-06 09:56 42.07862 3.45535 26521 ft 301 kts 235°
2026-05-06 09:56 42.06668 3.43277 26206 ft 297 kts 235°
2026-05-06 09:56 42.05477 3.41027 25902 ft 294 kts 235°
2026-05-06 09:56 42.04294 3.38794 25587 ft 292 kts 235°
2026-05-06 09:57 42.03094 3.36532 25296 ft 305 kts 235°
2026-05-06 09:57 42.01960 3.34127 25095 ft 298 kts 246°
2026-05-06 09:57 42.01424 3.31487 25030 ft 289 kts 256°
2026-05-06 09:57 42.01066 3.28829 24969 ft 290 kts 256°
2026-05-06 09:58 42.00702 3.26151 24902 ft 292 kts 256°
2026-05-06 09:58 42.00337 3.23503 24853 ft 292 kts 256°
2026-05-06 09:58 41.99957 3.20768 24666 ft 303 kts 256°
2026-05-06 09:58 41.99574 3.17990 24422 ft 299 kts 256°
2026-05-06 09:59 41.99202 3.15256 24183 ft 298 kts 256°
2026-05-06 09:59 41.98827 3.12512 23954 ft 298 kts 256°
2026-05-06 09:59 41.98452 3.09771 23721 ft 298 kts 256°
2026-05-06 09:59 41.98079 3.07038 23480 ft 297 kts 256°
2026-05-06 10:00 41.97704 3.04314 23212 ft 296 kts 256°
2026-05-06 10:00 41.97332 3.01605 22997 ft 295 kts 256°
2026-05-06 10:00 41.96956 2.98877 22971 ft 296 kts 256°
2026-05-06 10:00 41.96579 2.96156 22974 ft 296 kts 256°
2026-05-06 10:01 41.96201 2.93434 22975 ft 296 kts 256°
2026-05-06 10:01 41.95829 2.90749 22972 ft 296 kts 256°
2026-05-06 10:01 41.95447 2.87989 22969 ft 297 kts 256°
2026-05-06 10:01 41.95074 2.85300 22936 ft 297 kts 256°
2026-05-06 10:02 41.94692 2.82565 22965 ft 298 kts 256°
2026-05-06 10:02 41.94309 2.79835 22949 ft 299 kts 256°
2026-05-06 10:02 41.93927 2.77096 22664 ft 297 kts 256°
2026-05-06 10:02 41.93546 2.74367 22396 ft 296 kts 256°
2026-05-06 10:03 41.93165 2.71651 22127 ft 296 kts 257°
2026-05-06 10:03 41.92783 2.68940 21862 ft 295 kts 257°
2026-05-06 10:03 41.92402 2.66232 21611 ft 295 kts 257°
2026-05-06 10:03 41.92019 2.63511 21342 ft 295 kts 257°
2026-05-06 10:04 41.91637 2.60800 21090 ft 295 kts 257°
2026-05-06 10:04 41.91252 2.58090 20837 ft 296 kts 257°
2026-05-06 10:04 41.90869 2.55385 20577 ft 296 kts 257°
2026-05-06 10:04 41.90485 2.52667 20325 ft 296 kts 257°
2026-05-06 10:05 41.90103 2.49992 20075 ft 296 kts 257°
2026-05-06 10:05 41.89713 2.47283 19827 ft 295 kts 257°
2026-05-06 10:05 41.89326 2.44575 19573 ft 295 kts 257°
2026-05-06 10:05 41.88939 2.41866 19324 ft 296 kts 258°
2026-05-06 10:06 41.88552 2.39149 19092 ft 296 kts 258°
2026-05-06 10:06 41.88163 2.36441 18857 ft 296 kts 258°
2026-05-06 10:06 41.87773 2.33733 18612 ft 296 kts 258°
2026-05-06 10:06 41.87379 2.31024 18378 ft 296 kts 258°
2026-05-06 10:07 41.86985 2.28301 18126 ft 296 kts 258°
2026-05-06 10:07 41.86591 2.25578 17852 ft 298 kts 258°
2026-05-06 10:07 41.86194 2.22841 17580 ft 298 kts 258°
2026-05-06 10:07 41.85800 2.20152 17315 ft 297 kts 258°
2026-05-06 10:08 41.85394 2.17401 17044 ft 296 kts 258°
2026-05-06 10:08 41.85004 2.14743 16782 ft 294 kts 258°
2026-05-06 10:08 41.84611 2.12043 16518 ft 294 kts 258°
2026-05-06 10:08 41.84218 2.09349 16261 ft 294 kts 258°
2026-05-06 10:09 41.83823 2.06662 16006 ft 293 kts 259°
2026-05-06 10:09 41.83434 2.04005 15746 ft 288 kts 259°
2026-05-06 10:09 41.83049 2.01395 15503 ft 283 kts 259°
2026-05-06 10:09 41.82688 1.98820 15250 ft 279 kts 263°
2026-05-06 10:10 41.82786 1.96249 14997 ft 275 kts 280°
2026-05-06 10:10 41.83154 1.93752 14755 ft 272 kts 280°
2026-05-06 10:10 41.83523 1.91280 14505 ft 268 kts 280°
2026-05-06 10:10 41.83888 1.88843 14262 ft 265 kts 280°
2026-05-06 10:11 41.84253 1.86434 14021 ft 262 kts 281°
2026-05-06 10:11 41.84614 1.84053 13775 ft 259 kts 281°
2026-05-06 10:11 41.84968 1.81704 13505 ft 255 kts 280°
2026-05-06 10:11 41.85314 1.79378 13240 ft 253 kts 280°
2026-05-06 10:12 41.85657 1.77073 12969 ft 251 kts 280°
2026-05-06 10:12 41.85994 1.74819 12708 ft 249 kts 280°
2026-05-06 10:12 41.86332 1.72550 12443 ft 247 kts 280°
2026-05-06 10:12 41.86669 1.70287 12182 ft 246 kts 281°
2026-05-06 10:13 41.87001 1.68038 11933 ft 245 kts 280°
2026-05-06 10:13 41.87331 1.65802 11676 ft 245 kts 280°
2026-05-06 10:13 41.87662 1.63560 11426 ft 244 kts 280°
2026-05-06 10:13 41.87991 1.61329 11178 ft 244 kts 280°
2026-05-06 10:14 41.88319 1.59102 10938 ft 243 kts 279°
2026-05-06 10:14 41.88647 1.56883 10691 ft 242 kts 279°
2026-05-06 10:14 41.88974 1.54664 10440 ft 242 kts 279°
2026-05-06 10:14 41.89299 1.52452 10205 ft 241 kts 280°
2026-05-06 10:15 41.89621 1.50245 9963 ft 241 kts 280°
2026-05-06 10:15 41.89943 1.48044 9710 ft 239 kts 280°
2026-05-06 10:15 41.90255 1.45902 9452 ft 236 kts 280°
2026-05-06 10:15 41.90569 1.43740 9195 ft 235 kts 280°
2026-05-06 10:16 41.90882 1.41595 8936 ft 233 kts 280°
2026-05-06 10:16 41.91195 1.39464 8678 ft 231 kts 280°
2026-05-06 10:16 41.91502 1.37356 8427 ft 230 kts 280°
2026-05-06 10:16 41.91808 1.35241 8145 ft 231 kts 280°
2026-05-06 10:17 41.92108 1.33156 8051 ft 222 kts 281°
2026-05-06 10:17 41.92393 1.31188 8055 ft 209 kts 280°
2026-05-06 10:17 41.92667 1.29319 8058 ft 205 kts 283°
2026-05-06 10:17 41.93174 1.27532 8054 ft 206 kts 298°
2026-05-06 10:18 41.94029 1.25995 7876 ft 207 kts 314°
2026-05-06 10:18 41.95181 1.24832 7699 ft 208 kts 329°
2026-05-06 10:18 41.96532 1.24136 7523 ft 210 kts 345°
2026-05-06 10:18 41.98001 1.23973 7406 ft 214 kts
2026-05-06 10:19 41.99486 1.24117 7353 ft 212 kts
2026-05-06 10:19 42.00959 1.24249 7362 ft 213 kts
2026-05-06 10:19 42.02437 1.24378 7362 ft 212 kts 360°
2026-05-06 10:19 42.03888 1.24504 7363 ft 212 kts
2026-05-06 10:20 42.05362 1.24632 7363 ft 212 kts
2026-05-06 10:20 42.06831 1.24756 7356 ft 212 kts
2026-05-06 10:20 42.08302 1.25002 7359 ft 215 kts
2026-05-06 10:20 42.09733 1.25623 7327 ft 218 kts 21°
2026-05-06 10:21 42.11104 1.26474 7204 ft 216 kts 22°
2026-05-06 10:21 42.12463 1.27318 7107 ft 215 kts 22°
2026-05-06 10:21 42.13825 1.28159 7035 ft 214 kts 22°
2026-05-06 10:21 42.15141 1.28976 7056 ft 200 kts 21°
2026-05-06 10:22 42.16360 1.29735 7029 ft 185 kts 21°
2026-05-06 10:22 42.17480 1.30431 7004 ft 171 kts 21°
2026-05-06 10:22 42.18578 1.31107 7022 ft 178 kts 21°
2026-05-06 10:22 42.19713 1.31807 7005 ft 180 kts 22°
2026-05-06 10:23 42.20868 1.32521 6767 ft 182 kts 22°
2026-05-06 10:23 42.22007 1.33228 6444 ft 176 kts 23°
2026-05-06 10:23 42.23090 1.33902 6039 ft 168 kts 23°
2026-05-06 10:23 42.24126 1.34546 5650 ft 163 kts 23°
2026-05-06 10:24 42.25149 1.35182 5262 ft 158 kts 23°
2026-05-06 10:24 42.26142 1.35800 4928 ft 159 kts 24°
2026-05-06 10:24 42.27139 1.36421 4676 ft 154 kts 22°
2026-05-06 10:24 42.28094 1.37015 4461 ft 152 kts 23°
2026-05-06 10:25 42.29062 1.37608 4174 ft 153 kts 23°
2026-05-06 10:25 42.30041 1.38149 3865 ft 152 kts 17°
2026-05-06 10:25 42.31037 1.38619 3553 ft 151 kts 24°
2026-05-06 10:25 42.31959 1.39310 3209 ft 152 kts 31°
2026-05-06 10:26 42.32863 1.40049 2854 ft 153 kts 32°
2026-05-06 10:26 42.33752 1.40785 2644 ft 142 kts 30°
2026-05-06 10:26 42.34377 1.41285 2640 ft 58 kts 31°
2026-05-06 10:26 42.34545 1.41421 2640 ft 9 kts 31°
2026-05-06 10:27 42.34602 1.41469 2640 ft 8 kts 46°
2026-05-06 10:27 42.34586 1.41530 2640 ft 8 kts 127°
2026-05-06 10:27 42.34534 1.41515 2640 ft 13 kts 234°
2026-05-06 10:27 42.34476 1.41388 2640 ft 17 kts 236°
2026-05-06 10:28 42.34360 1.41273 2640 ft 25 kts 210°
2026-05-06 10:28 42.34200 1.41144 2640 ft 27 kts 212°
2026-05-06 10:28 42.34036 1.41008 2640 ft 28 kts 210°
2026-05-06 10:28 42.33874 1.40880 2640 ft 24 kts 213°
2026-05-06 10:29 42.33779 1.40737 2640 ft 9 kts 234°
2026-05-06 10:29 42.33742 1.40666 2640 ft 5 kts 234°
2026-05-06 10:29 42.33726 1.40621 2640 ft 6 kts 269°
2026-05-06 10:29 42.33741 1.40563 2640 ft 7 kts 289°
2026-05-06 10:30 42.33753 1.40489 2640 ft 9 kts 263°
2026-05-06 10:30 42.33749 1.40456 2641 ft 0 kts 260°